STARLINK-2701 (48656 NORAD) Tracking and Keplerian Element Data

This shows tracking and keplerian element data for the satellite.

Feedback or suggestion? Click here.




ElementValue
Catalog48656
NameSTARLINK-2701
Epoch Orbit1049
Epoch Day214.6985091
Epoch Year2021
RAAN103.3787
Inclination53.0552
Eccentricity0.0001685
Argument of Perigee85.4491
Mean Anonmoly274.669
Mean Motion15.06395433
Decay Rate5.29E-06
L11 48656U 21044U 21214.69850910 .00000529 00000-0 54438-4 0 9992
L22 48656 53.0552 103.3787 0001685 85.4491 274.6690 15.06395433 10498

Live tracking and technical data element details for STARLINK-2701 (NORAD 48656). STARLINK-2701 can be tracked NOW for your location showing map with azimuth and elevation plus other details from your city location.

Track the satellite on the map from your city or location and see movement details for azimuth, elevation, latitude, longitude, range, height, and movement on the map or in text.







IsCatalogInMostPopularTable: catalog: 48656, numindb: 14
Update: records affected: 1



GetName: 48656 STARLINK-2701

Hit Count: updated at: Tue, 03 Aug 2021 23:46:52 GMT